Lid_Strength_Index
12 12 11 11 10 8 7 7 8 8 8 9 9 9 11 12 12 13 13 14 14 14 15 15 15 15 16 16 16 16 16 16
14 14 15 14 14 13 12 11 10 10 9 11 11 12 13 13 13 14 14 14 14 15 15 16 16 16 16 17 17 16 17 16
14 15 14 13 14 15 15 12 12 12 12 12 12 13 14 14 14 14 14 14 15 15 16 17 17 17 17 18 17 17 17 16
15 15 15 15 14 15 15 13 14 13 13 13 13 13 14 14 15 15 15 15 16 16 16 17 17 18 17 17 17 17 17 17
15 16 16 16 16 16 16 16 15 14 14 14 14 14 14 14 15 15 15 16 16 16 16 16 17 17 17 17 17 17 17 17
17 16 16 17 17 17 16 16 17 16 15 15 15 15 15 15 15 15 15 16 16 16 16 16 16 16 17 17 17 17 17 17
19 18 16 16 16 18 19 17 16 17 17 17 16 15 16 16 16 16 16 16 16 16 16 16 16 15 15 16 17 17 17 17
16 17 16 15 15 16 18 17 16 16 16 16 15 16 17 16 16 17 17 17 17 17 17 17 16 14 14 14 16 16 17 17
15 15 15 15 16 15 15 15 16 16 16 16 16 17 17 17 17 17 17 17 17 17 17 17 17 14 14 14 15 16 16 16
16 14 15 15 15 16 16 16 16 16 17 16 16 17 17 17 18 17 17 17 18 17 18 17 17 15 14 14 15 15 15 15
16 16 16 16 15 15 16 16 17 17 17 17 17 17 17 17 18 17 17 17 17 17 17 17 17 15 14 14 15 15 15 14
16 17 17 16 15 16 17 17 17 17 17 17 17 18 18 18 18 18 18 18 18 18 17 17 16 16 13 13 14 15 15 15
17 17 16 15 16 17 18 17 17 17 18 18 18 18 18 18 19 18 18 19 18 18 18 17 17 16 15 13 13 13 14 14
18 18 18 17 16 18 18 18 18 19 19 19 19 18 19 19 19 19 18 19 19 18 18 18 16 16 14 14 13 13 13 14
18 19 19 18 18 18 18 18 18 19 20 20 20 19 19 18 19 18 19 19 18 18 18 18 18 17 16 16 15 14 15 15
19 18 19 19 19 19 19 19 19 19 20 19 19 19 19 19 18 18 18 18 18 18 18 19 18 17 16 16 17 17 16 20
21 21 21 21 21 21 20 20 19 19 19 19 19 19 19 20 20 17 16 15 15 15 17 17 16 14 14 13 13 13 13 18
23 23 24 24 23 23 22 22 21 20 19 19 19 20 20 20 21 21 19 16 15 14 13 13 15 13 12 12 12 12 12 16
27 27 28 28 26 25 27 23 22 21 20 20 20 20 21 21 21 21 21 22 21 18 16 15 15 14 13 13 12 15 14 17
31 29 29 29 25 28 30 26 26 24 23 24 22 22 22 22 22 22 22 21 22 22 19 20 17 16 15 13 17 17 18 18